Arcata, CA

8:54 PM PDT on May 22, 2017 (GMT -0700)
Arcata

Weather History for KACV - March, 2013

Change the Weather History Date:

Saturday, March 30, 2013

  Actual Average Record
Temperature  
Mean Temperature 51 °F -  
Max Temperature 55 °F 53 °F 64 °F (2003)
Min Temperature 48 °F 38 °F 30 °F (2008)
Degree Days  
Heating Degree Days 14    
Growing Degree Days 1 (Base 50)    
Moisture  
Dew Point 49 °F    
Average Humidity 95    
Maximum Humidity 100    
Minimum Humidity 86    
Precipitation  
Precipitation 0.19 in - - ()
Sea Level Pressure  
Sea Level Pressure 30.06 in    
Wind  
Wind Speed 3 mph (West)    
Max Wind Speed 12 mph    
Max Gust Speed -    
Visibility 9 miles    
Events Rain    
Averages and records for this station are not official NWS values.
T = Trace of Precipitation, MM = Missing Value Source: NWS Daily Summary

Daily Weather History Graph

Daily Weather History Graph

Search for Another Location

Airport or City:

Trip Planner

Search our weather history database for the weather conditions in past years. The results will help you decide how hot, cold, wet, or windy it might be!

Date:

Astronomy

Mar. 30, 2013 Rise Set
Actual Time 7:02 AM PDT 7:39 PM PDT
Civil Twilight 6:34 AM PDT 8:07 PM PDT
Nautical Twilight 6:02 AM PDT 8:40 PM PDT
Astronomical Twilight 5:28 AM PDT 9:13 PM PDT
Moon 11:54 PM PDT (3/30) 9:00 AM PDT (3/30)
Length of Visible Light 13h 32m
Length of Day
12h 37m
Waning Gibbous, 85% of the Moon is Illuminated
Mar 30
Waning Gibbous
Apr 2
Last Quarter
Apr 10
New
Apr 18
First Quarter
Apr 25
Full

Hourly Weather History & Observations

Time (PDT) Temp. Dew Point Humidity Pressure Visibility Wind Dir Wind Speed Gust Speed Precip Events Conditions
12:53 AM 51.1 °F 50.0 °F 96% 30.06 in 10.0 mi Calm Calm - N/A   Clear
1:53 AM 51.1 °F 50.0 °F 96% 30.04 in 10.0 mi Calm Calm - N/A   Clear
2:53 AM 52.0 °F 50.0 °F 93% 30.04 in 10.0 mi ESE 3.5 mph - N/A   Clear
3:53 AM 53.1 °F 51.1 °F 93% 30.03 in 10.0 mi Calm Calm - N/A   Clear
4:53 AM 50.0 °F 48.9 °F 96% 30.04 in 10.0 mi SW 4.6 mph - N/A   Clear
5:53 AM 48.0 °F 48.0 °F 100% 30.03 in 10.0 mi Calm Calm - N/A   Clear
6:53 AM 48.9 °F 48.9 °F 100% 30.03 in 10.0 mi Calm Calm - N/A   Clear
7:53 AM 52.0 °F 51.1 °F 97% 30.03 in 10.0 mi NE 3.5 mph - N/A   Partly Cloudy
8:53 AM 50.0 °F 48.9 °F 96% 30.04 in 10.0 mi Calm Calm - N/A   Scattered Clouds
9:53 AM 51.1 °F 50.0 °F 96% 30.05 in 10.0 mi SW 6.9 mph - N/A   Scattered Clouds
10:53 AM 54.0 °F 50.0 °F 86% 30.06 in 10.0 mi West 4.6 mph - N/A   Clear
11:22 AM 51.8 °F 50.0 °F 94% 30.05 in 10.0 mi WSW 10.4 mph - N/A   Partly Cloudy
11:53 AM 52.0 °F 50.0 °F 93% 30.07 in 10.0 mi Calm Calm - N/A   Clear
12:29 PM 50.0 °F 48.2 °F 94% 30.05 in 10.0 mi West 6.9 mph - N/A   Scattered Clouds
12:37 PM 50.0 °F 48.2 °F 94% 30.04 in 10.0 mi West 6.9 mph - N/A   Mostly Cloudy
12:53 PM 50.0 °F 48.9 °F 96% 30.07 in 10.0 mi West 9.2 mph - N/A   Overcast
1:53 PM 48.9 °F 48.9 °F 100% 30.08 in 3.0 mi WSW 8.1 mph - N/A   Overcast
2:00 PM 48.2 °F 48.2 °F 100% 30.05 in 2.0 mi WSW 5.8 mph - N/A   Overcast
2:15 PM 50.0 °F 48.2 °F 94% 30.05 in 6.0 mi Calm Calm - N/A   Overcast
2:53 PM 50.0 °F 48.9 °F 96% 30.08 in 3.0 mi WSW 8.1 mph - N/A   Overcast
2:56 PM 48.2 °F 48.2 °F 100% 30.06 in 1.8 mi WSW 8.1 mph - N/A   Overcast
3:10 PM 48.2 °F 48.2 °F 100% 30.07 in 4.0 mi SW 8.1 mph - N/A   Overcast
3:53 PM 52.0 °F 48.9 °F 89% 30.09 in 10.0 mi Calm Calm - N/A   Overcast
4:26 PM 53.6 °F 50.0 °F 88% 30.06 in 10.0 mi Variable 3.5 mph - N/A   Partly Cloudy
4:53 PM 53.1 °F 50.0 °F 89% 30.06 in 10.0 mi NW 4.6 mph - N/A   Clear
5:53 PM 51.1 °F 48.0 °F 89% 30.08 in 10.0 mi West 4.6 mph - N/A   Scattered Clouds
6:05 PM 51.8 °F 48.2 °F 88% 30.06 in 10.0 mi North 4.6 mph - N/A   Mostly Cloudy
6:32 PM 51.8 °F 48.2 °F 88% 30.05 in 10.0 mi NE 6.9 mph - N/A   Overcast
6:53 PM 51.1 °F 48.0 °F 89% 30.07 in 10.0 mi NW 6.9 mph - N/A   Mostly Cloudy
7:53 PM 50.0 °F 48.9 °F 96% 30.06 in 9.0 mi NW 6.9 mph - 0.02 in Rain Light Rain
8:53 PM 48.9 °F 48.9 °F 100% 30.05 in 8.0 mi NE 11.5 mph - 0.06 in Rain Light Rain
9:53 PM 48.9 °F 48.9 °F 100% 30.08 in 10.0 mi Calm Calm - 0.07 in Rain Light Rain
10:53 PM 48.9 °F 48.9 °F 100% 30.06 in 10.0 mi Calm Calm - 0.03 in   Overcast
11:53 PM 48.9 °F 48.9 °F 100% 30.04 in 10.0 mi SSE 3.5 mph - 0.01 in   Overcast